Location: Emporia
(38.4040°N, 96.1810°W)
Time: 07:12:01
(UTC-06:00)

ISS - Visible Passes

Search period start: 21 January 2017 00:00
Search period end: 31 January 2017 00:00
Orbit: 399 x 410 km, 51.6° (Epoch: 21 January)

Date Brightness Start Highest point End Pass type
(mag) Time Alt. Az. Time Alt. Az. Time Alt. Az.
21 Jan -1.0 06:25:01 12° SW 06:25:01 12° SW 06:26:06 10° SSW visible
25 Jan -0.8 19:31:58 10° S 19:32:36 14° S 19:32:36 14° S visible
26 Jan -1.2 18:41:02 10° SSE 18:42:39 13° SE 18:43:01 13° ESE visible
26 Jan 0.1 20:15:33 10° WSW 20:15:42 11° WSW 20:15:42 11° WSW visible
27 Jan -3.0 19:23:13 10° SW 19:26:01 59° SSW 19:26:01 59° SSW visible
28 Jan -2.4 18:31:15 10° SSW 18:34:14 33° SE 18:36:15 17° ENE visible
28 Jan -0.3 20:07:54 10° W 20:08:55 17° WNW 20:08:55 17° WNW visible
29 Jan -2.5 19:15:07 10° WSW 19:18:16 45° NW 19:19:03 37° N visible
30 Jan -3.4 18:22:38 10° SW 18:25:55 90° NNE 18:29:05 11° NE visible
30 Jan -0.4 20:00:41 10° WNW 20:01:45 14° NW 20:01:45 14° NW visible
